Flag for Czech Republic Weather past 2 weeks in Ostrava, Czech Republic

Now
37 °F

Passing clouds.


Feels Like: 33 °F
Forecast: 32 / 43 °F
Wind: 5 mph from Southwest

Location: Ostrava / Mosnov

Current Time: Mar 4, 2015 at 1:26:21 AM

Latest Report: Mar 4, 2015 at 12:00 AM


Visibility: 19 mi

Pressure: 30.16 "Hg

Humidity: 62%

Dew point: 25 °F

Location of OstravaLocation

Historic Weather in Ostrava — Graph

°F

Ostrava temperature yesterday

Maximum temperature yesterday: 45 °F (at 3:00 PM)
Minimum temperature yesterday: 35 °F (at 1:00 AM)
Average temperature yesterday: 39 °F

Past Weeks' High & Low Weather Summary

 TemperatureHumidityPressure
High49 °F (Mar 1, 1:00 PM)98% (Feb 27, 12:00 AM)30.78 "Hg (Feb 27, 12:00 AM)
Low20 °F (Feb 17, 6:00 AM)40% (Mar 3, 2:00 PM)29.57 "Hg (Feb 23, 5:00 PM)
Average38 °F80%30.05 "Hg
* Reported Midnight between Feb 16 and Feb 17 — Midnight between Mar 3 and Mar 4, Ostrava, Weather by CustomWeather, © 2015

Note: Actual official high and low records may vary slightly from our data, if they occured in-between our weather recording intervals... More about our weather records

Advertising

Ostrava weather history for previous 24 hours

 ConditionsComfort  
Time TempWeatherWind HumidityBarometerVisibility
12:00 AM
Wed, Mar 4
37 °FPassing clouds.5 mph62%30.16 "Hg19 mi
11:00 PM
Tue, Mar 3
37 °FPassing clouds.7 mph59%30.17 "Hg19 mi
10:00 PM38 °FPassing clouds.5 mph55%30.18 "Hg19 mi
9:00 PM38 °FClear.7 mph55%30.17 "Hg19 mi
8:00 PM38 °FClear.6 mph55%30.18 "Hg19 mi
7:00 PM37 °FClear.5 mph55%30.18 "Hg19 mi
6:00 PM36 °FPassing clouds.5 mph55%30.18 "Hg25 mi
5:00 PM43 °FPassing clouds.8 mph43%30.15 "Hg25 mi
4:00 PM44 °FScattered clouds.6 mph40%30.14 "Hg28 mi
3:00 PM45 °FPartly sunny.8 mph40%30.13 "Hg28 mi
2:00 PM45 °FScattered clouds.8 mph40%30.13 "Hg28 mi
1:00 PM44 °FScattered clouds.8 mph43%30.13 "Hg28 mi
12:00 PM41 °FPartly sunny.8 mph52%30.14 "Hg28 mi
11:00 AM40 °FPartly sunny.7 mph59%30.12 "Hg19 mi
10:00 AM38 °FOvercast.8 mph66%30.11 "Hg25 mi
9:00 AM38 °FPartly sunny.8 mph69%30.09 "Hg22 mi
8:00 AM36 °FPartly sunny.8 mph78%30.07 "Hg19 mi
7:00 AM36 °FOvercast.9 mph76%30.04 "Hg7 mi
6:00 AM36 °FOvercast.9 mph76%30.01 "Hg12 mi
5:00 AM36 °FSnow flurries. Overcast.10 mph78%29.98 "Hg9 mi
4:00 AM36 °FPassing clouds.10 mph79%29.93 "Hg12 mi
3:00 AM36 °FLight snow. Overcast.7 mph85%29.90 "Hg5 mi
2:00 AM36 °FOvercast.3 mph77%29.90 "Hg22 mi
1:00 AM35 °FPassing clouds.5 mph79%29.90 "Hg25 mi
Weather by CustomWeather, © 2015

See weather overviewHow to use our weather pages